,,Stat6,,Stat2,,Stat8,,Stat9,,Stat10,,Wind1,,Wind1,
time,status,PA1M_AVG,status,PR1M_SUM,status,RH1M_AVG,status,SR1M_AVG,status,TA1M_AVG,status,W1dAve1m,status,W1sAve1m,
2008-04-16, 00:00:00,VALID,916.604,VALID,0,VALID,100,VALID,0,VALID,19.1605,VALID,137,VALID,0,
2008-04-16, 00:01:00,VALID,916.59,VALID,0,VALID,100,VALID,0,VALID,19.1605,VALID,137,VALID,0,
2008-04-16, 00:02:00,VALID,916.581,VALID,0,VALID,100,VALID,0.0339617,VALID,19.1702,VALID,145,VALID,0,
2008-04-16, 00:03:00,VALID,916.557,VALID,0,VALID,100,VALID,0.0169808,VALID,19.1603,VALID,126,VALID,0,
2008-04-16, 00:04:00,VALID,916.53,VALID,0,VALID,100,VALID,-0.0169808,VALID,19.1607,VALID,130,VALID,0,
2008-04-16, 00:05:00,VALID,916.511,VALID,0,VALID,100,VALID,-0.0849042,VALID,19.1418,VALID,140,VALID,0,
2008-04-16, 00:06:00,VALID,916.478,VALID,0,VALID,100,VALID,-0.118866,VALID,19.1557,VALID,141,VALID,0,
2008-04-16, 00:07:00,VALID,916.463,VALID,0,VALID,100,VALID,-0.101885,VALID,19.1457,VALID,145,VALID,0,
2008-04-16, 00:08:00,VALID,916.445,VALID,0,VALID,100,VALID,-0.118866,VALID,19.1462,VALID,146,VALID,0,
2008-04-16, 00:09:00,VALID,916.422,VALID,0,VALID,100,VALID,-0.101885,VALID,19.1495,VALID,146,VALID,0,
2008-04-16, 00:10:00,VALID,916.393,VALID,0,VALID,100,VALID,-0.101885,VALID,19.143,VALID,146,VALID,0,
2008-04-16, 00:11:00,VALID,916.37,VALID,0,VALID,100,VALID,-0.101885,VALID,19.133,VALID,165,VALID,0.104353,
2008-04-16, 00:12:00,VALID,916.341,VALID,0,VALID,100,VALID,-0.118866,VALID,19.1362,VALID,156,VALID,0,
2008-04-16, 00:13:00,VALID,916.33,VALID,0,VALID,100,VALID,-0.101885,VALID,19.1457,VALID,157,VALID,0,
2008-04-16, 00:14:00,VALID,916.288,VALID,0,VALID,100,VALID,-0.118866,VALID,19.1555,VALID,157,VALID,0,
2008-04-16, 00:15:00,VALID,916.271,VALID,0,VALID,100,VALID,-0.118866,VALID,19.1492,VALID,157,VALID,0,
2008-04-16, 00:16:00,VALID,916.252,VALID,0,VALID,100,VALID,-0.101885,VALID,19.136,VALID,146,VALID,0.375953,
2008-04-16, 00:17:00,VALID,916.235,VALID,0,VALID,100,VALID,-0.101885,VALID,19.1228,VALID,141,VALID,0.356136,
2008-04-16, 00:18:00,VALID,916.217,VALID,0,VALID,100,VALID,-0.0849042,VALID,19.1098,VALID,140,VALID,0.569336,
2008-04-16, 00:19:00,VALID,916.219,VALID,0,VALID,100,VALID,-0.0679233,VALID,19.1133,VALID,137,VALID,0.577925,
2008-04-16, 00:20:00,VALID,916.205,VALID,0,VALID,100,VALID,-0.0169808,VALID,19.1024,VALID,137,VALID,0.502951,
2008-04-16, 00:21:00,VALID,916.179,VALID,0,VALID,100,VALID,0,VALID,19.1056,VALID,137,VALID,0.0534157,
2008-04-16, 00:22:00,VALID,916.156,VALID,0,VALID,100,VALID,0.0169808,VALID,19.0919,VALID,139,VALID,0,
2008-04-16, 00:23:00,VALID,916.15,VALID,0,VALID,100,VALID,0.0169808,VALID,19.1051,VALID,147,VALID,0,
2008-04-16, 00:24:00,VALID,916.115,VALID,0,VALID,100,VALID,0.0509425,VALID,19.1148,VALID,148,VALID,0.142428,
2008-04-16, 00:25:00,VALID,916.109,VALID,0,VALID,100,VALID,0.0169808,VALID,19.1019,VALID,147,VALID,0.750545,
2008-04-16, 00:26:00,VALID,916.08,VALID,0,VALID,100,VALID,0.0339617,VALID,19.0954,VALID,131,VALID,0.342507,
2008-04-16, 00:27:00,VALID,916.049,VALID,0,VALID,100,VALID,0.0169808,VALID,19.0981,VALID,131,VALID,0,
2008-04-16, 00:28:00,VALID,916.034,VALID,0,VALID,100,VALID,0.0679233,VALID,19.0887,VALID,129,VALID,0.0902778,
2008-04-16, 00:29:00,VALID,916.024,VALID,0,VALID,100,VALID,0.0339617,VALID,19.0794,VALID,118,VALID,0.596946,
2008-04-16, 00:30:00,VALID,915.995,VALID,0,VALID,100,VALID,0.0169808,VALID,19.0759,VALID,116,VALID,0.685082,
2008-04-16, 00:31:00,VALID,915.974,VALID,0,VALID,100,VALID,0,VALID,19.0729,VALID,116,VALID,0.252976,
2008-04-16, 00:32:00,VALID,915.952,VALID,0,VALID,100,VALID,0.0169808,VALID,19.05,VALID,113,VALID,0,
2008-04-16, 00:33:00,VALID,915.929,VALID,0,VALID,100,VALID,0.0169808,VALID,19.0467,VALID,111,VALID,0,
2008-04-16, 00:34:00,VALID,915.91,VALID,0,VALID,100,VALID,0,VALID,19.027,VALID,108,VALID,0,
2008-04-16, 00:35:00,VALID,915.903,VALID,0,VALID,100,VALID,0,VALID,19.021,VALID,107,VALID,0,
2008-04-16, 00:36:00,VALID,915.893,VALID,0,VALID,100,VALID,0.0169808,VALID,19.031,VALID,119,VALID,0,
2008-04-16, 00:37:00,VALID,915.879,VALID,0,VALID,100,VALID,0.0169808,VALID,19.021,VALID,126,VALID,0.367188,
2008-04-16, 00:38:00,VALID,915.862,VALID,0,VALID,100,VALID,0.0339617,VALID,19.0145,VALID,120,VALID,0,
2008-04-16, 00:39:00,VALID,915.843,VALID,0,VALID,100,VALID,0.0339617,VALID,19.0013,VALID,132,VALID,0.468369,
2008-04-16, 00:40:00,VALID,915.835,VALID,0,VALID,100,VALID,0.0169808,VALID,19.014,VALID,155,VALID,0.253906,
2008-04-16, 00:41:00,VALID,915.818,VALID,0,VALID,100,VALID,0.0509425,VALID,19.011,VALID,138,VALID,0.563227,
2008-04-16, 00:42:00,VALID,915.807,VALID,0,VALID,100,VALID,0.0679233,VALID,18.9976,VALID,139,VALID,0.170351,
2008-04-16, 00:43:00,VALID,915.794,VALID,0,VALID,100,VALID,0.0169808,VALID,18.9976,VALID,127,VALID,0.670785,
2008-04-16, 00:44:00,VALID,915.772,VALID,0,VALID,100,VALID,0.0169808,VALID,19.0016,VALID,113,VALID,0.217262,
2008-04-16, 00:45:00,VALID,915.764,VALID,0,VALID,100,VALID,0.0509425,VALID,19.011,VALID,117,VALID,1.0129,
2008-04-16, 00:46:00,VALID,915.749,VALID,0,VALID,100,VALID,0.0509425,VALID,19.0011,VALID,112,VALID,1.05301,
2008-04-16, 00:47:00,VALID,915.738,VALID,0,VALID,100,VALID,-0.0169808,VALID,18.9978,VALID,113,VALID,0.813244,
2008-04-16, 00:48:00,VALID,915.728,VALID,0,VALID,100,VALID,0.0169808,VALID,18.9814,VALID,113,VALID,0.67223,
2008-04-16, 00:49:00,VALID,915.706,VALID,0,VALID,100,VALID,0,VALID,18.9881,VALID,117,VALID,0.895064,
2008-04-16, 00:50:00,VALID,915.704,VALID,0,VALID,100,VALID,0,VALID,18.9916,VALID,122,VALID,0.465039,
2008-04-16, 00:51:00,VALID,915.681,VALID,0,VALID,100,VALID,0.0169808,VALID,18.9811,VALID,117,VALID,0.583147,
2008-04-16, 00:52:00,VALID,915.67,VALID,0,VALID,100,VALID,0,VALID,18.9888,VALID,116,VALID,0.753551,
2008-04-16, 00:53:00,VALID,915.64,VALID,0,VALID,100,VALID,0.0169808,VALID,18.9786,VALID,124,VALID,0.776228,
2008-04-16, 00:54:00,VALID,915.63,VALID,0,VALID,100,VALID,0.0169808,VALID,18.9624,VALID,120,VALID,0.467507,
2008-04-16, 00:55:00,VALID,915.61,VALID,0,VALID,100,VALID,0.0169808,VALID,18.9557,VALID,123,VALID,0.902616,
2008-04-16, 00:56:00,VALID,915.595,VALID,0,VALID,100,VALID,0,VALID,18.9686,VALID,120,VALID,0.687309,
2008-04-16, 00:57:00,VALID,915.583,VALID,0,VALID,100,VALID,0,VALID,18.9624,VALID,125,VALID,0.924543,
2008-04-16, 00:58:00,VALID,915.568,VALID,0,VALID,100,VALID,0.0169808,VALID,18.9661,VALID,124,VALID,1.02943,
2008-04-16, 00:59:00,VALID,915.57,VALID,0,VALID,100,VALID,0.0339617,VALID,18.9626,VALID,113,VALID,0.00628811,
2008-04-16, 01:00:00,VALID,915.551,VALID,0,VALID,100,VALID,0,VALID,18.9466,VALID,114,VALID,0,
2008-04-16, 01:01:00,VALID,915.559,VALID,0,VALID,100,VALID,0.0169808,VALID,18.9372,VALID,114,VALID,0.00140224,
2008-04-16, 01:02:00,VALID,915.55,VALID,0,VALID,100,VALID,0,VALID,18.9304,VALID,119,VALID,0,
2008-04-16, 01:03:00,VALID,915.536,VALID,0,VALID,100,VALID,-0.0169808,VALID,18.9205,VALID,123,VALID,0,
2008-04-16, 01:04:00,VALID,915.536,VALID,0,VALID,100,VALID,0,VALID,18.9105,VALID,122,VALID,0,
2008-04-16, 01:05:00,VALID,915.538,VALID,0,VALID,100,VALID,-0.0509425,VALID,18.9087,VALID,123,VALID,0,
2008-04-16, 01:06:00,VALID,915.534,VALID,0,VALID,100,VALID,-0.101885,VALID,18.9022,VALID,126,VALID,0,
2008-04-16, 01:07:00,VALID,915.527,VALID,0,VALID,100,VALID,-0.0849042,VALID,18.9057,VALID,127,VALID,0,
2008-04-16, 01:08:00,VALID,915.532,VALID,0,VALID,100,VALID,-0.101885,VALID,18.9092,VALID,131,VALID,0,
2008-04-16, 01:09:00,VALID,915.508,VALID,0,VALID,100,VALID,-0.101885,VALID,18.9154,VALID,134,VALID,0,
2008-04-16, 01:10:00,VALID,915.497,VALID,0,VALID,100,VALID,-0.101885,VALID,18.9152,VALID,138,VALID,0,
2008-04-16, 01:11:00,VALID,915.469,VALID,0,VALID,100,VALID,-0.0679233,VALID,18.9186,VALID,123,VALID,0,
2008-04-16, 01:12:00,VALID,915.462,VALID,0,VALID,100,VALID,-0.101885,VALID,18.8987,VALID,119,VALID,0,
2008-04-16, 01:13:00,VALID,915.461,VALID,0,VALID,100,VALID,-0.101885,VALID,18.8892,VALID,120,VALID,0,
2008-04-16, 01:14:00,VALID,915.444,VALID,0,VALID,100,VALID,-0.0679233,VALID,18.8992,VALID,124,VALID,0,
2008-04-16, 01:15:00,VALID,915.441,VALID,0,VALID,100,VALID,-0.0679233,VALID,18.8925,VALID,127,VALID,0,
2008-04-16, 01:16:00,VALID,915.423,VALID,0,VALID,100,VALID,-0.0509425,VALID,18.889,VALID,136,VALID,0,
2008-04-16, 01:17:00,VALID,915.422,VALID,0,VALID,100,VALID,-0.0849042,VALID,18.879,VALID,130,VALID,0,
2008-04-16, 01:18:00,VALID,915.407,VALID,0,VALID,100,VALID,-0.0509425,VALID,18.8788,VALID,129,VALID,0,
2008-04-16, 01:19:00,VALID,915.411,VALID,0,VALID,100,VALID,-0.101885,VALID,18.886,VALID,131,VALID,0,
2008-04-16, 01:20:00,VALID,915.415,VALID,0,VALID,100,VALID,-0.0169808,VALID,18.8716,VALID,135,VALID,0,
2008-04-16, 01:21:00,VALID,915.417,VALID,0,VALID,100,VALID,0,VALID,18.875,VALID,138,VALID,0,
2008-04-16, 01:22:00,VALID,915.408,VALID,0,VALID,100,VALID,0.0509425,VALID,18.8975,VALID,141,VALID,0,
2008-04-16, 01:23:00,VALID,915.406,VALID,0,VALID,100,VALID,0.0169808,VALID,18.888,VALID,141,VALID,0,
2008-04-16, 01:24:00,VALID,915.4,VALID,0,VALID,100,VALID,0.0169808,VALID,18.8843,VALID,141,VALID,0,
2008-04-16, 01:25:00,VALID,915.425,VALID,0,VALID,100,VALID,0,VALID,18.8945,VALID,141,VALID,0,
2008-04-16, 01:26:00,VALID,915.43,VALID,0,VALID,100,VALID,0.0169808,VALID,18.8978,VALID,141,VALID,0,
2008-04-16, 01:27:00,VALID,915.433,VALID,0,VALID,100,VALID,0,VALID,18.9072,VALID,141,VALID,0,
2008-04-16, 01:28:00,VALID,915.439,VALID,0,VALID,100,VALID,0.0509425,VALID,18.904,VALID,141,VALID,0,
2008-04-16, 01:29:00,VALID,915.445,VALID,0,VALID,100,VALID,-0.0169808,VALID,18.9107,VALID,141,VALID,0,
2008-04-16, 01:30:00,VALID,915.444,VALID,0,VALID,100,VALID,-0.0339617,VALID,18.9175,VALID,141,VALID,0,
2008-04-16, 01:31:00,VALID,915.442,VALID,0,VALID,100,VALID,0,VALID,18.9135,VALID,141,VALID,0,
2008-04-16, 01:32:00,VALID,915.447,VALID,0,VALID,100,VALID,0,VALID,18.9045,VALID,141,VALID,0,
2008-04-16, 01:33:00,VALID,915.448,VALID,0,VALID,100,VALID,-0.0169808,VALID,18.9207,VALID,202,VALID,0,
2008-04-16, 01:34:00,VALID,915.453,VALID,0,VALID,100,VALID,0,VALID,18.9304,VALID,277,VALID,0,
2008-04-16, 01:35:00,VALID,915.446,VALID,0,VALID,100,VALID,-0.0169808,VALID,18.9332,VALID,277,VALID,0,
2008-04-16, 01:36:00,VALID,915.439,VALID,0,VALID,100,VALID,0,VALID,18.9434,VALID,277,VALID,0,
2008-04-16, 01:37:00,VALID,915.445,VALID,0,VALID,100,VALID,0,VALID,18.9367,VALID,277,VALID,0,
2008-04-16, 01:38:00,VALID,915.439,VALID,0,VALID,100,VALID,0,VALID,18.9432,VALID,277,VALID,0,
2008-04-16, 01:39:00,VALID,915.452,VALID,0,VALID,100,VALID,0.0169808,VALID,18.9529,VALID,277,VALID,0,
2008-04-16, 01:40:00,VALID,915.46,VALID,0,VALID,100,VALID,0.0169808,VALID,18.9527,VALID,277,VALID,0,
2008-04-16, 01:41:00,VALID,915.477,VALID,0,VALID,100,VALID,0.0509425,VALID,18.9489,VALID,277,VALID,0,
2008-04-16, 01:42:00,VALID,915.478,VALID,0,VALID,100,VALID,0.0169808,VALID,18.9529,VALID,277,VALID,0,
2008-04-16, 01:43:00,VALID,915.484,VALID,0,VALID,100,VALID,0.0169808,VALID,18.9494,VALID,283,VALID,0,
2008-04-16, 01:44:00,VALID,915.481,VALID,0,VALID,100,VALID,0.0509425,VALID,18.9102,VALID,291,VALID,0,
2008-04-16, 01:45:00,VALID,915.465,VALID,0,VALID,100,VALID,0.0509425,VALID,18.9038,VALID,291,VALID,0,
2008-04-16, 01:46:00,VALID,915.468,VALID,0,VALID,100,VALID,0,VALID,18.8938,VALID,291,VALID,0,
2008-04-16, 01:47:00,VALID,915.461,VALID,0,VALID,100,VALID,0,VALID,18.8905,VALID,291,VALID,0,
2008-04-16, 01:48:00,VALID,915.441,VALID,0,VALID,100,VALID,0,VALID,18.8811,VALID,291,VALID,0,
2008-04-16, 01:49:00,VALID,915.422,VALID,0,VALID,100,VALID,0.0169808,VALID,18.8716,VALID,291,VALID,0,
2008-04-16, 01:50:00,VALID,915.396,VALID,0,VALID,100,VALID,0,VALID,18.8648,VALID,291,VALID,0,
2008-04-16, 01:51:00,VALID,915.394,VALID,0,VALID,100,VALID,0,VALID,18.8426,VALID,291,VALID,0,
2008-04-16, 01:52:00,VALID,915.386,VALID,0,VALID,100,VALID,0,VALID,18.7932,VALID,291,VALID,0,
2008-04-16, 01:53:00,VALID,915.376,VALID,0,VALID,100,VALID,-0.0169808,VALID,18.7615,VALID,291,VALID,0,
2008-04-16, 01:54:01,VALID,915.363,VALID,0,VALID,100,VALID,0,VALID,18.7288,VALID,291,VALID,0,
2008-04-16, 01:55:01,VALID,915.35,VALID,0,VALID,100,VALID,0.0169808,VALID,18.7119,VALID,291,VALID,0,
2008-04-16, 01:56:00,VALID,915.312,VALID,0,VALID,100,VALID,0,VALID,18.7541,VALID,291,VALID,0,
2008-04-16, 01:57:00,VALID,915.307,VALID,0,VALID,100,VALID,0,VALID,18.7898,VALID,291,VALID,0,
2008-04-16, 01:58:00,VALID,915.288,VALID,0,VALID,100,VALID,0.0169808,VALID,18.7932,VALID,291,VALID,0,
2008-04-16, 01:59:00,VALID,915.28,VALID,0,VALID,100,VALID,0.0679233,VALID,18.7837,VALID,291,VALID,0,
2008-04-16, 02:00:00,VALID,915.248,VALID,0,VALID,100,VALID,0.0169808,VALID,18.755,VALID,293,VALID,0,
2008-04-16, 02:01:00,VALID,915.236,VALID,0,VALID,100,VALID,0,VALID,18.7578,VALID,300,VALID,0,
2008-04-16, 02:02:00,VALID,915.222,VALID,0,VALID,100,VALID,0.0679233,VALID,18.7705,VALID,31,VALID,0,
2008-04-16, 02:03:00,VALID,915.209,VALID,0,VALID,100,VALID,0.0339617,VALID,18.7807,VALID,31,VALID,0,
2008-04-16, 02:04:00,VALID,915.181,VALID,0,VALID,100,VALID,0.0339617,VALID,18.764,VALID,31,VALID,0,
2008-04-16, 02:05:01,VALID,915.175,VALID,0,VALID,100,VALID,0,VALID,18.7546,VALID,31,VALID,0,
2008-04-16, 02:06:01,VALID,915.165,VALID,0,VALID,100,VALID,0,VALID,18.7875,VALID,31,VALID,0,
2008-04-16, 02:07:00,VALID,915.164,VALID,0,VALID,100,VALID,0.0169808,VALID,18.794,VALID,31,VALID,0,
2008-04-16, 02:08:01,VALID,915.144,VALID,0,VALID,100,VALID,0.0339617,VALID,18.7898,VALID,31,VALID,0,
2008-04-16, 02:09:01,VALID,915.144,VALID,0,VALID,100,VALID,0.0339617,VALID,18.8062,VALID,31,VALID,0,
2008-04-16, 02:10:00,VALID,915.132,VALID,0,VALID,100,VALID,0.0679233,VALID,18.8551,VALID,31,VALID,0,
2008-04-16, 02:11:00,VALID,915.151,VALID,0,VALID,100,VALID,0.0169808,VALID,18.8292,VALID,31,VALID,0,
2008-04-16, 02:12:00,VALID,915.156,VALID,0,VALID,100,VALID,0.0169808,VALID,18.8002,VALID,30,VALID,0,
2008-04-16, 02:13:00,VALID,915.149,VALID,0,VALID,100,VALID,0.0169808,VALID,18.7962,VALID,30,VALID,0,
2008-04-16, 02:14:00,VALID,915.144,VALID,0,VALID,100,VALID,0,VALID,18.8394,VALID,26,VALID,0,
2008-04-16, 02:15:01,VALID,915.128,VALID,0,VALID,100,VALID,0.0339617,VALID,18.8486,VALID,24,VALID,0,
2008-04-16, 02:16:00,VALID,915.13,VALID,0,VALID,100,VALID,0,VALID,18.8002,VALID,25,VALID,0.0205793,
2008-04-16, 02:17:00,VALID,915.132,VALID,0,VALID,100,VALID,0.0169808,VALID,18.9072,VALID,13,VALID,0.561806,
2008-04-16, 02:18:00,VALID,915.135,VALID,0,VALID,100,VALID,0.0339617,VALID,18.9005,VALID,14,VALID,0,
2008-04-16, 02:19:00,VALID,915.135,VALID,0,VALID,100,VALID,0.0339617,VALID,18.92,VALID,14,VALID,0,
2008-04-16, 02:20:00,VALID,915.133,VALID,0,VALID,100,VALID,0,VALID,18.9235,VALID,14,VALID,0,
2008-04-16, 02:21:00,VALID,915.118,VALID,0,VALID,100,VALID,0.0679233,VALID,18.9297,VALID,14,VALID,0,
2008-04-16, 02:22:00,VALID,915.117,VALID,0,VALID,100,VALID,0.0679233,VALID,18.9163,VALID,358,VALID,0,
2008-04-16, 02:23:00,VALID,915.107,VALID,0,VALID,100,VALID,0.0169808,VALID,18.936,VALID,346,VALID,0,
2008-04-16, 02:24:01,VALID,915.098,VALID,0,VALID,100,VALID,0.0679233,VALID,18.9686,VALID,354,VALID,0.0533288,
2008-04-16, 02:25:00,VALID,915.086,VALID,0,VALID,100,VALID,0.0169808,VALID,18.9913,VALID,9,VALID,0.723772,
2008-04-16, 02:26:00,VALID,915.078,VALID,0,VALID,100,VALID,0.0169808,VALID,18.9621,VALID,19,VALID,0.00887784,
2008-04-16, 02:27:00,VALID,915.09,VALID,0,VALID,100,VALID,0.0169808,VALID,18.9429,VALID,14,VALID,0.114524,
2008-04-16, 02:28:01,VALID,915.074,VALID,0,VALID,100,VALID,0.0169808,VALID,18.9399,VALID,355,VALID,0.0739462,
2008-04-16, 02:29:00,VALID,915.071,VALID,0,VALID,100,VALID,0.0339617,VALID,18.939,VALID,12,VALID,0.305831,
2008-04-16, 02:30:00,VALID,915.059,VALID,0,VALID,100,VALID,0.0509425,VALID,18.9225,VALID,23,VALID,0.709162,
2008-04-16, 02:31:00,VALID,915.066,VALID,0,VALID,100,VALID,0.0509425,VALID,18.9163,VALID,21,VALID,0.565234,
2008-04-16, 02:32:01,VALID,915.051,VALID,0,VALID,100,VALID,0.0679233,VALID,18.9292,VALID,21,VALID,0.646723,
2008-04-16, 02:33:01,VALID,915.046,VALID,0,VALID,100,VALID,0.0169808,VALID,18.9265,VALID,22,VALID,0.730469,
2008-04-16, 02:34:01,VALID,915.039,VALID,0,VALID,100,VALID,0.0169808,VALID,18.8901,VALID,32,VALID,1.00577,
2008-04-16, 02:35:00,VALID,915.023,VALID,0,VALID,100,VALID,-0.0509425,VALID,18.895,VALID,32,VALID,1.01926,
2008-04-16, 02:36:01,VALID,915.009,VALID,0,VALID,100,VALID,-0.0679233,VALID,18.905,VALID,17,VALID,1.32582,
2008-04-16, 02:37:01,VALID,915.009,VALID,0,VALID,100,VALID,-0.0679233,VALID,18.902,VALID,30,VALID,1.14896,
2008-04-16, 02:38:00,VALID,915.034,VALID,0,VALID,100,VALID,-0.101885,VALID,18.895,VALID,355,VALID,1.32087,
2008-04-16, 02:39:00,VALID,915.027,VALID,0,VALID,100,VALID,-0.0679233,VALID,18.9184,VALID,352,VALID,0.428779,
2008-04-16, 02:40:00,VALID,915.028,VALID,0,VALID,100,VALID,-0.0679233,VALID,18.9372,VALID,357,VALID,0.914608,
2008-04-16, 02:41:01,VALID,915.038,VALID,0,VALID,100,VALID,-0.0339617,VALID,18.9763,VALID,354,VALID,1.492,
2008-04-16, 02:42:01,VALID,915.022,VALID,0,VALID,100,VALID,-0.101885,VALID,18.9476,VALID,29,VALID,1.52816,
2008-04-16, 02:43:00,VALID,915.025,VALID,0,VALID,100,VALID,-0.101885,VALID,18.9311,VALID,23,VALID,1.81808,
2008-04-16, 02:44:00,VALID,915.021,VALID,0,VALID,100,VALID,-0.0509425,VALID,18.9314,VALID,25,VALID,1.63114,
2008-04-16, 02:45:01,VALID,915.019,VALID,0,VALID,100,VALID,-0.0849042,VALID,18.9082,VALID,26,VALID,1.22865,
2008-04-16, 02:46:00,VALID,915.015,VALID,0,VALID,100,VALID,-0.101885,VALID,18.9152,VALID,20,VALID,1.40643,
2008-04-16, 02:47:01,VALID,915.01,VALID,0,VALID,100,VALID,-0.101885,VALID,18.9217,VALID,9,VALID,0.842578,
2008-04-16, 02:48:01,VALID,915.004,VALID,0,VALID,100,VALID,-0.101885,VALID,18.9316,VALID,355,VALID,0.133492,
2008-04-16, 02:49:01,VALID,915.01,VALID,0,VALID,100,VALID,-0.0509425,VALID,18.9152,VALID,319,VALID,0,
2008-04-16, 02:50:01,VALID,915.028,VALID,0,VALID,100,VALID,0.0169808,VALID,18.8943,VALID,306,VALID,0,
2008-04-16, 02:51:01,VALID,915.037,VALID,0,VALID,100,VALID,0,VALID,18.8778,VALID,335,VALID,0,
2008-04-16, 02:52:01,VALID,915.035,VALID,0,VALID,100,VALID,0,VALID,18.9205,VALID,12,VALID,0.335193,
2008-04-16, 02:53:01,VALID,915.054,VALID,0,VALID,100,VALID,0.0169808,VALID,18.9367,VALID,9,VALID,0.357515,
2008-04-16, 02:54:00,VALID,915.05,VALID,0,VALID,100,VALID,0,VALID,18.9399,VALID,10,VALID,0,
2008-04-16, 02:55:00,VALID,915.051,VALID,0,VALID,100,VALID,0.0339617,VALID,18.9202,VALID,16,VALID,0,
2008-04-16, 02:56:00,VALID,915.057,VALID,0,VALID,100,VALID,0.0339617,VALID,18.9165,VALID,16,VALID,0.473011,
2008-04-16, 02:57:00,VALID,915.039,VALID,0,VALID,100,VALID,0,VALID,18.936,VALID,13,VALID,0.883345,
2008-04-16, 02:58:00,VALID,915.031,VALID,0,VALID,100,VALID,0.0509425,VALID,18.9325,VALID,15,VALID,0.794695,
2008-04-16, 02:59:00,VALID,915.022,VALID,0,VALID,100,VALID,0.0169808,VALID,18.9559,VALID,23,VALID,0.664608,
2008-04-16, 03:00:00,VALID,915.012,VALID,0,VALID,100,VALID,0.0339617,VALID,18.9617,VALID,19,VALID,0.438072,
2008-04-16, 03:01:00,VALID,915.003,VALID,0,VALID,100,VALID,0.0339617,VALID,18.9714,VALID,9,VALID,0.631904,
2008-04-16, 03:02:00,VALID,915.005,VALID,0,VALID,100,VALID,0.0509425,VALID,18.9876,VALID,348,VALID,0.649503,
2008-04-16, 03:03:00,VALID,915.002,VALID,0,VALID,100,VALID,0.0509425,VALID,19.0238,VALID,332,VALID,0.205124,
2008-04-16, 03:04:00,VALID,914.987,VALID,0,VALID,100,VALID,0.0169808,VALID,19.0532,VALID,360,VALID,0,
2008-04-16, 03:05:00,VALID,914.979,VALID,0,VALID,100,VALID,-0.0169808,VALID,19.0472,VALID,18,VALID,0,
2008-04-16, 03:06:00,VALID,914.979,VALID,0,VALID,100,VALID,-0.101885,VALID,19.0549,VALID,25,VALID,0.407366,
2008-04-16, 03:07:00,VALID,914.966,VALID,0,VALID,100,VALID,-0.0849042,VALID,19.0512,VALID,20,VALID,0.0904297,
2008-04-16, 03:08:00,VALID,914.958,VALID,0,VALID,100,VALID,-0.0849042,VALID,19.0549,VALID,11,VALID,0,
2008-04-16, 03:09:00,VALID,914.949,VALID,0,VALID,100,VALID,-0.0679233,VALID,19.0547,VALID,13,VALID,0,
2008-04-16, 03:10:00,VALID,914.941,VALID,0,VALID,100,VALID,-0.0679233,VALID,19.0711,VALID,13,VALID,0,
2008-04-16, 03:11:00,VALID,914.943,VALID,0,VALID,100,VALID,-0.0509425,VALID,19.0809,VALID,13,VALID,0,
2008-04-16, 03:12:00,VALID,914.945,VALID,0,VALID,100,VALID,-0.118866,VALID,19.0901,VALID,13,VALID,0,
2008-04-16, 03:13:00,VALID,914.948,VALID,0,VALID,100,VALID,-0.0849042,VALID,19.0968,VALID,13,VALID,0,
2008-04-16, 03:14:00,VALID,914.928,VALID,0,VALID,100,VALID,-0.0849042,VALID,19.0933,VALID,25,VALID,0.320313,
2008-04-16, 03:15:00,VALID,914.947,VALID,0,VALID,100,VALID,-0.101885,VALID,19.1066,VALID,15,VALID,0.799006,
2008-04-16, 03:16:00,VALID,914.96,VALID,0,VALID,100,VALID,-0.0679233,VALID,19.1135,VALID,15,VALID,0.372396,
2008-04-16, 03:17:00,VALID,914.959,VALID,0,VALID,100,VALID,-0.101885,VALID,19.0971,VALID,15,VALID,0,
2008-04-16, 03:18:00,VALID,914.972,VALID,0,VALID,100,VALID,-0.0849042,VALID,19.0681,VALID,15,VALID,0,
2008-04-16, 03:19:00,VALID,914.989,VALID,0,VALID,100,VALID,-0.0849042,VALID,19.0841,VALID,25,VALID,0,
2008-04-16, 03:20:00,VALID,914.997,VALID,0,VALID,100,VALID,-0.0169808,VALID,19.0959,VALID,35,VALID,0.590402,
2008-04-16, 03:21:00,VALID,915.009,VALID,0,VALID,100,VALID,0.0169808,VALID,19.0884,VALID,54,VALID,0.599848,
2008-04-16, 03:22:00,VALID,915.02,VALID,0,VALID,100,VALID,-0.0169808,VALID,19.0989,VALID,53,VALID,0.640067,
2008-04-16, 03:23:00,VALID,915.037,VALID,0,VALID,100,VALID,0.0169808,VALID,19.0961,VALID,56,VALID,0.776526,
2008-04-16, 03:24:00,VALID,915.041,VALID,0,VALID,100,VALID,0.0169808,VALID,19.1024,VALID,48,VALID,1.08848,
2008-04-16, 03:25:00,VALID,915.053,VALID,0.2,VALID,100,VALID,0,VALID,19.1058,VALID,46,VALID,0.36464,
2008-04-16, 03:26:00,VALID,915.063,VALID,0,VALID,100,VALID,0.0169808,VALID,19.0829,VALID,46,VALID,0,
2008-04-16, 03:27:00,VALID,915.073,VALID,0,VALID,100,VALID,0.0169808,VALID,19.0959,VALID,46,VALID,0,
2008-04-16, 03:28:00,VALID,915.08,VALID,0,VALID,100,VALID,0.0339617,VALID,19.0921,VALID,46,VALID,0,
2008-04-16, 03:29:00,VALID,915.081,VALID,0,VALID,100,VALID,0,VALID,19.0859,VALID,46,VALID,0,
2008-04-16, 03:30:00,VALID,915.071,VALID,0,VALID,100,VALID,0.0339617,VALID,19.0627,VALID,46,VALID,0,
2008-04-16, 03:31:00,VALID,915.064,VALID,0,VALID,100,VALID,0.0509425,VALID,19.0632,VALID,51,VALID,0,
2008-04-16, 03:32:00,VALID,915.044,VALID,0,VALID,100,VALID,0,VALID,19.0732,VALID,113,VALID,0,
2008-04-16, 03:33:00,VALID,915.041,VALID,0,VALID,100,VALID,0.0169808,VALID,19.0632,VALID,127,VALID,0,
2008-04-16, 03:34:00,VALID,915.025,VALID,0,VALID,100,VALID,0.0169808,VALID,19.0238,VALID,151,VALID,0,
2008-04-16, 03:35:00,VALID,915.005,VALID,0,VALID,100,VALID,0.0509425,VALID,18.9981,VALID,150,VALID,0.059375,
2008-04-16, 03:36:00,VALID,914.973,VALID,0,VALID,100,VALID,0.0339617,VALID,18.9564,VALID,146,VALID,0.361281,
2008-04-16, 03:37:00,VALID,914.968,VALID,0,VALID,100,VALID,0.0169808,VALID,18.9302,VALID,150,VALID,0.00111607,
2008-04-16, 03:38:00,VALID,914.958,VALID,0,VALID,100,VALID,0.0169808,VALID,18.904,VALID,152,VALID,0.280678,
2008-04-16, 03:39:00,VALID,914.943,VALID,0,VALID,100,VALID,0.0339617,VALID,18.911,VALID,159,VALID,0,
2008-04-16, 03:40:00,VALID,914.933,VALID,0,VALID,100,VALID,0,VALID,18.9142,VALID,159,VALID,0,
2008-04-16, 03:41:00,VALID,914.915,VALID,0,VALID,100,VALID,0.0339617,VALID,18.9005,VALID,159,VALID,0,
2008-04-16, 03:42:00,VALID,914.9,VALID,0,VALID,100,VALID,0.0339617,VALID,18.9012,VALID,159,VALID,0.0352471,
2008-04-16, 03:43:00,VALID,914.878,VALID,0,VALID,100,VALID,0.0169808,VALID,18.8938,VALID,159,VALID,0,
2008-04-16, 03:44:00,VALID,914.86,VALID,0,VALID,100,VALID,0,VALID,18.914,VALID,159,VALID,0,
2008-04-16, 03:45:00,VALID,914.85,VALID,0,VALID,100,VALID,-0.0169808,VALID,18.9337,VALID,159,VALID,0.0012718,
2008-04-16, 03:46:00,VALID,914.845,VALID,0,VALID,100,VALID,0.0169808,VALID,18.9265,VALID,159,VALID,0,
2008-04-16, 03:47:00,VALID,914.827,VALID,0,VALID,100,VALID,0.0169808,VALID,18.9497,VALID,159,VALID,0,
2008-04-16, 03:48:00,VALID,914.831,VALID,0,VALID,100,VALID,0.0169808,VALID,18.9429,VALID,159,VALID,0,